Wind_Speed
11 11 11 11 10 11 12 14 14 15 15 16 16 17 18 19 20 20 20 21 22 24 26 28 28 27 29 30 32 31 30 31 36 36 36 36 34 35 38 36 35 36 42 41 37
12 13 13 13 13 13 14 15 15 15 15 16 17 18 20 20 21 22 21 22 23 24 25 27 28 27 29 30 31 30 30 34 34 36 35 38 37 41 41 42 41 38 46 48 42
16 15 15 15 14 15 16 17 18 18 18 18 18 19 21 22 22 23 24 24 25 25 27 27 28 29 29 29 29 29 30 32 35 38 37 39 40 44 45 45 46 49 50 51 49
19 18 18 18 18 19 20 20 20 20 21 21 20 20 20 22 24 25 26 25 26 26 28 29 28 30 31 32 30 28 30 31 34 37 39 41 43 44 48 49 51 52 48 49 50
22 22 21 21 22 22 23 23 22 23 22 22 23 23 23 23 26 27 27 26 26 26 28 28 29 30 32 31 30 29 29 31 34 37 39 43 42 44 42 44 47 53 52 48 46
24 24 24 23 23 24 23 23 22 22 22 22 23 25 26 27 27 27 27 28 27 27 30 29 29 30 31 30 29 28 28 32 34 36 39 38 40 41 37 42 57 59 57 53 45
26 26 26 26 25 25 24 24 23 23 22 23 25 28 29 29 28 29 28 29 29 28 29 30 31 31 30 29 27 27 28 30 32 34 34 37 38 37 44 52 55 61 60 61 54
28 28 28 28 28 27 25 25 25 25 26 24 26 30 31 30 29 30 31 30 29 30 31 29 31 31 30 28 27 28 28 30 32 30 35 35 32 39 42 52 43 38 48 62 55
31 31 30 29 29 29 28 27 28 28 27 27 26 30 32 32 32 32 31 29 30 30 31 31 32 31 29 27 28 28 27 28 29 32 35 38 36 36 45 48 36 37 31 41 45
36 35 33 32 31 31 30 29 29 30 29 29 29 30 32 35 34 32 31 30 28 29 31 31 31 31 29 27 28 27 27 28 29 32 36 38 37 34 42 34 33 34 25 34 41
39 39 35 34 33 32 32 30 30 30 30 28 32 32 33 33 35 34 27 26 28 30 31 30 31 30 29 29 29 27 27 27 29 33 34 37 37 36 36 28 26 27 22 24 32
40 39 38 35 34 33 31 30 30 30 30 30 34 34 33 33 31 30 30 24 27 28 31 31 30 31 29 28 29 27 25 27 30 30 29 33 31 32 36 24 25 22 25 19 27
40 38 38 36 35 33 31 30 31 31 31 31 33 35 33 29 26 28 29 29 25 27 30 31 31 31 28 27 28 27 26 28 29 30 28 30 30 29 32 20 20 24 18 29 24
41 40 37 34 32 32 31 29 31 32 32 32 33 29 30 28 24 24 26 28 26 27 28 28 28 28 27 26 27 27 25 27 29 30 27 27 30 29 25 20 20 29 13 6 21
35 34 33 32 31 32 31 29 30 31 33 33 30 31 28 24 22 21 24 27 28 28 26 26 27 24 25 25 26 26 27 27 29 29 23 24 26 28 22 21 24 18 10 12 10
36 36 35 33 31 30 30 30 31 32 37 34 29 28 23 22 24 23 24 27 28 28 25 25 25 23 22 25 25 24 24 26 27 27 24 19 21 23 25 19 10 2 18 6 20
38 37 36 34 32 31 32 32 32 32 32 31 27 25 23 23 26 26 25 26 25 25 23 22 22 22 22 24 25 25 24 25 26 27 20 17 17 18 20 18 9 9 10 15 6
38 38 37 35 33 30 31 30 29 28 29 27 22 23 23 25 27 27 24 21 23 23 24 24 21 20 22 22 24 25 23 25 25 26 24 17 14 14 11 15 11 3 10 3 5
38 38 37 35 33 31 29 26 26 26 28 24 23 27 25 25 26 24 22 20 22 24 22 24 21 20 21 21 22 25 21 23 23 23 24 19 13 12 12 10 12 7 9 14 16
41 40 36 34 33 32 31 27 26 28 28 26 26 26 25 23 23 21 21 23 23 22 21 21 18 17 19 20 24 25 24 23 24 22 25 19 14 12 14 11 11 11 6 6 6
42 38 34 32 31 29 26 26 29 28 25 25 25 25 24 22 20 20 21 22 21 18 17 16 15 15 17 21 24 25 24 23 23 24 22 24 15 14 13 14 15 12 8 6 5
37 36 33 31 29 22 19 23 25 26 24 24 24 23 21 23 20 20 20 21 19 16 13 14 14 16 19 23 25 27 25 23 22 23 24 23 17 17 16 14 15 16 14 10 11
41 39 38 37 32 22 23 25 26 24 24 24 24 21 22 23 22 21 20 22 19 14 12 13 16 17 20 24 26 26 26 24 22 22 22 21 18 17 16 15 16 15 15 16 12
44 43 43 39 30 24 25 28 26 24 23 25 26 23 25 25 23 24 21 18 17 15 15 16 16 16 19 23 26 26 26 23 23 21 22 22 19 18 17 14 15 18 18 18 18
49 48 43 38 29 29 30 29 28 25 26 27 27 26 28 23 25 26 26 23 18 17 19 17 16 18 19 22 27 24 25 25 23 22 21 19 20 19 18 15 12 14 18 19 21
53 52 48 43 35 35 34 32 31 31 30 31 31 30 26 26 30 27 27 25 21 20 22 21 19 21 20 24 28 23 25 26 24 22 21 21 19 20 19 18 16 14 14 16 15
54 47 40 34 34 39 31 31 34 34 32 33 33 31 30 32 29 30 27 27 25 23 22 23 23 24 21 25 28 22 27 29 24 23 22 19 20 20 20 20 20 19 17 13 16
Wind_Direction
289 297 309 313 319 317 321 326 324 317 318 320 320 320 320 317 314 313 311 306 303 303 304 302 301 302 303 303 302 300 297 291 286 291 290 288 290 289 288 284 276 261 262 263 263
279 287 298 309 309 311 316 321 321 319 313 315 317 321 322 322 319 315 313 308 306 305 303 303 304 305 304 304 300 298 294 290 292 288 289 288 289 287 285 284 279 268 256 258 261
274 280 287 296 301 301 304 308 312 314 314 311 312 314 318 318 318 316 313 311 310 310 308 308 307 308 305 301 297 294 291 290 291 289 289 290 290 291 289 286 281 275 260 258 259
271 276 282 289 296 300 300 301 303 305 307 307 310 311 314 315 314 313 313 311 311 312 310 309 307 306 307 304 300 298 294 293 293 295 294 295 294 293 292 288 283 276 264 266 259
273 276 282 288 293 296 296 298 299 302 307 308 307 307 312 313 313 316 315 310 310 309 309 309 309 309 309 305 302 304 300 296 295 296 298 297 297 294 289 290 288 276 258 254 253
273 276 280 285 291 298 297 295 295 298 302 306 310 311 312 314 313 314 315 313 314 311 311 312 311 312 311 308 309 309 303 300 299 299 302 302 297 290 292 297 304 280 254 254 247
276 277 278 281 287 290 295 294 295 296 298 303 307 312 315 316 315 316 316 317 315 313 312 311 312 313 314 313 311 310 305 303 305 307 302 304 298 293 299 294 300 270 255 247 248
272 275 278 279 283 287 289 290 289 294 297 300 309 314 316 314 313 315 316 315 315 314 314 311 314 317 318 315 315 313 310 310 309 308 304 304 296 306 311 320 299 289 258 247 237
274 273 276 279 282 284 284 284 285 289 292 297 306 311 314 315 313 314 314 312 313 314 313 313 317 318 318 319 320 317 316 311 313 304 303 301 306 310 323 318 302 289 275 255 244
269 272 274 279 278 280 282 283 285 288 291 297 304 310 313 316 313 312 312 312 313 314 311 315 319 320 321 322 321 321 319 313 316 309 307 306 314 326 331 319 302 287 277 251 232
266 270 270 277 277 276 280 282 286 289 291 295 302 308 312 316 312 308 307 310 312 312 313 316 321 322 326 324 324 325 324 323 319 314 310 313 315 346 340 331 308 297 290 259 227
267 268 268 272 273 273 277 281 283 287 290 296 300 307 311 313 311 309 307 308 310 313 316 319 323 325 329 325 325 326 325 323 320 321 317 322 331 347 347 329 321 302 277 275 230
266 266 269 273 271 272 275 279 281 284 289 295 299 305 310 310 309 307 307 308 314 318 320 323 326 327 328 327 327 327 327 323 322 327 328 332 340 353 344 327 334 324 319 254 241
263 266 267 268 265 267 273 276 281 286 291 296 301 304 308 305 306 308 307 309 317 321 324 324 327 327 330 328 328 326 328 325 327 330 336 340 345 348 346 345 331 329 338 312 232
259 260 261 262 261 266 271 275 281 285 291 298 302 304 306 302 303 306 306 310 318 320 323 325 326 329 328 327 328 329 328 328 328 330 337 346 349 347 356 349 358 3 342 86 182
259 258 260 260 262 263 267 274 279 286 291 292 298 302 300 299 299 301 308 312 316 318 322 327 328 327 328 330 327 327 329 328 328 328 333 346 347 343 345 353 0 339 56 109 170
256 257 259 261 260 263 266 270 279 282 288 292 297 296 294 296 298 302 308 312 317 318 324 328 326 327 332 328 327 326 329 329 328 329 333 339 340 342 338 348 41 8 279 274 212
255 254 255 256 257 260 264 270 277 282 283 285 289 288 290 294 294 300 305 313 314 318 326 330 329 331 331 329 325 326 331 331 328 327 327 325 338 340 330 349 340 256 284 330 101
251 252 254 255 259 259 259 274 279 277 279 278 283 284 286 289 292 295 302 310 312 316 323 326 330 335 327 323 326 325 330 328 327 326 324 319 316 313 325 325 324 319 282 287 317
248 251 251 253 252 255 253 267 272 269 272 277 278 281 284 286 290 295 302 308 315 318 322 326 329 329 325 325 322 322 328 328 324 322 321 323 322 288 297 303 320 323 294 286 330
246 245 242 243 247 253 255 257 263 265 268 273 276 279 279 281 288 294 301 308 315 316 319 321 329 325 324 322 319 319 322 325 322 321 322 324 320 308 283 287 298 302 319 290 289
236 234 236 239 241 243 249 253 256 261 269 272 272 273 275 277 286 292 301 302 317 314 316 317 325 326 325 318 318 316 316 317 321 324 320 318 327 308 295 283 284 289 293 304 315
236 235 234 236 236 241 248 250 253 261 265 269 267 266 269 276 280 285 294 299 300 310 309 311 315 322 325 318 314 309 313 314 316 317 314 309 315 317 306 286 276 279 283 290 286
238 237 238 235 232 238 244 245 250 253 259 264 263 262 265 275 281 281 285 292 304 302 305 303 306 317 320 320 308 309 311 310 308 313 311 307 306 310 309 299 285 273 270 269 269
233 236 231 233 239 244 247 251 249 250 253 259 258 259 262 275 276 277 280 281 295 301 295 290 294 306 310 310 304 307 309 305 303 306 307 301 301 302 300 300 291 283 276 271 271
223 230 233 236 242 244 248 242 240 244 252 257 255 258 266 270 268 275 276 276 286 298 294 285 286 298 302 308 302 306 306 300 302 302 302 297 298 293 293 291 291 287 285 284 286
225 230 237 232 240 243 244 236 237 240 252 253 253 258 261 263 270 269 273 272 285 293 284 282 285 293 302 300 299 310 303 301 298 295 299 302 295 288 289 289 290 288 282 279 276
Height
5815 5815 5815 5815 5814 5813 5812 5812 5810 5809 5808 5806 5805 5804 5802 5801 5799 5797 5796 5794 5793 5792 5790 5789 5787 5786 5784 5782 5780 5778 5778 5776 5772 5773 5772 5771 5772 5772 5769 5770 5771 5769 5766 5768 5775
5814 5813 5813 5813 5812 5811 5811 5810 5809 5807 5806 5805 5803 5802 5800 5799 5798 5795 5793 5790 5789 5788 5786 5785 5783 5782 5780 5778 5776 5774 5772 5769 5769 5766 5765 5764 5764 5762 5763 5762 5760 5762 5757 5755 5768
5811 5811 5811 5810 5809 5808 5808 5807 5807 5805 5803 5802 5801 5800 5798 5796 5795 5792 5790 5788 5786 5784 5782 5780 5778 5777 5774 5771 5769 5767 5765 5762 5761 5758 5757 5755 5755 5752 5752 5752 5750 5748 5743 5745 5752
5808 5808 5808 5808 5807 5806 5805 5804 5804 5802 5801 5799 5797 5796 5794 5793 5793 5789 5787 5784 5782 5780 5777 5775 5773 5771 5768 5765 5762 5761 5758 5755 5753 5751 5749 5746 5744 5744 5739 5739 5737 5734 5731 5733 5737
5804 5804 5804 5804 5804 5803 5802 5800 5800 5798 5797 5796 5794 5793 5791 5790 5787 5785 5782 5779 5776 5774 5771 5768 5767 5764 5762 5759 5756 5754 5752 5748 5745 5742 5740 5738 5734 5731 5729 5723 5721 5721 5718 5720 5723
5800 5800 5800 5800 5800 5799 5798 5797 5795 5794 5793 5792 5791 5789 5787 5786 5783 5779 5776 5774 5772 5769 5766 5763 5760 5757 5755 5752 5749 5746 5744 5741 5737 5733 5731 5728 5723 5715 5713 5710 5708 5703 5703 5703 5706
5795 5796 5796 5796 5796 5795 5794 5793 5791 5790 5789 5788 5786 5785 5783 5781 5778 5775 5772 5769 5767 5764 5761 5757 5754 5751 5748 5746 5743 5739 5737 5733 5729 5725 5721 5716 5708 5703 5701 5694 5685 5677 5678 5682 5689
5790 5790 5791 5791 5791 5791 5790 5788 5787 5786 5785 5783 5781 5780 5779 5776 5773 5770 5768 5764 5761 5759 5756 5752 5749 5746 5743 5739 5737 5733 5730 5725 5719 5715 5708 5704 5700 5694 5686 5673 5661 5653 5655 5659 5666
5784 5785 5784 5785 5785 5785 5785 5783 5782 5781 5780 5779 5777 5775 5775 5772 5769 5766 5763 5760 5756 5754 5751 5747 5743 5740 5737 5734 5731 5726 5722 5717 5712 5705 5699 5694 5690 5682 5671 5659 5650 5644 5642 5649 5659
5778 5778 5778 5779 5779 5779 5779 5778 5778 5777 5776 5775 5774 5772 5770 5768 5764 5760 5758 5755 5752 5748 5745 5742 5738 5734 5732 5728 5724 5719 5716 5710 5704 5699 5691 5685 5680 5672 5660 5651 5644 5637 5635 5636 5646
5770 5771 5772 5773 5772 5773 5773 5773 5774 5773 5771 5770 5769 5766 5763 5761 5759 5755 5750 5748 5746 5743 5740 5737 5734 5730 5726 5722 5718 5713 5709 5704 5697 5691 5684 5678 5672 5662 5653 5645 5638 5632 5631 5631 5637
5762 5763 5765 5766 5766 5766 5766 5766 5766 5767 5766 5765 5763 5761 5758 5755 5752 5751 5750 5742 5739 5736 5735 5732 5729 5725 5722 5718 5713 5709 5704 5699 5693 5686 5679 5673 5665 5655 5648 5640 5634 5627 5626 5627 5631
5754 5756 5757 5758 5759 5760 5760 5760 5759 5759 5760 5760 5758 5756 5753 5750 5746 5746 5745 5741 5734 5732 5729 5727 5724 5720 5717 5713 5709 5706 5700 5694 5689 5681 5675 5669 5662 5651 5645 5637 5633 5624 5618 5620 5626
5746 5748 5749 5751 5754 5753 5753 5753 5753 5753 5753 5754 5753 5751 5748 5745 5743 5740 5739 5738 5732 5729 5726 5723 5720 5716 5713 5710 5706 5701 5696 5691 5684 5677 5671 5667 5659 5652 5646 5638 5631 5625 5621 5618 5622
5737 5739 5741 5743 5745 5746 5747 5746 5747 5748 5746 5746 5744 5743 5741 5741 5738 5734 5733 5732 5729 5726 5721 5719 5715 5712 5710 5705 5702 5699 5693 5688 5682 5675 5671 5665 5660 5654 5648 5642 5638 5632 5627 5624 5628
5728 5731 5733 5736 5737 5739 5740 5740 5740 5742 5739 5739 5737 5737 5736 5734 5732 5729 5728 5727 5723 5721 5716 5713 5711 5708 5705 5703 5699 5696 5690 5686 5680 5674 5670 5665 5662 5656 5651 5647 5644 5642 5638 5638 5639
5720 5722 5725 5728 5730 5731 5733 5734 5735 5734 5734 5733 5732 5732 5731 5729 5728 5726 5723 5722 5720 5717 5714 5710 5708 5705 5703 5700 5697 5693 5687 5683 5680 5674 5670 5666 5663 5659 5653 5650 5648 5646 5646 5647 5646
5711 5714 5716 5719 5721 5724 5726 5728 5728 5728 5727 5727 5726 5726 5725 5723 5723 5722 5718 5717 5714 5713 5708 5706 5706 5701 5700 5698 5695 5691 5687 5683 5679 5675 5670 5667 5664 5662 5658 5652 5652 5650 5649 5650 5647
5702 5705 5708 5711 5713 5716 5719 5720 5721 5720 5720 5720 5720 5719 5718 5716 5716 5716 5714 5712 5711 5708 5705 5702 5702 5698 5697 5695 5693 5689 5685 5682 5678 5674 5669 5667 5665 5663 5659 5657 5654 5653 5651 5649 5650
5692 5695 5699 5702 5704 5707 5710 5713 5713 5712 5713 5714 5714 5713 5712 5711 5711 5711 5710 5709 5708 5703 5701 5700 5698 5695 5695 5693 5691 5687 5683 5680 5676 5673 5669 5666 5663 5661 5660 5659 5658 5654 5653 5652 5650
5681 5686 5689 5692 5695 5699 5703 5704 5704 5705 5706 5708 5707 5706 5707 5706 5706 5706 5706 5706 5702 5699 5697 5696 5695 5693 5691 5690 5687 5685 5680 5677 5675 5672 5669 5665 5664 5660 5659 5658 5656 5656 5654 5654 5650
5672 5676 5680 5683 5688 5692 5695 5695 5696 5697 5699 5700 5700 5701 5702 5701 5702 5702 5701 5701 5698 5694 5694 5693 5693 5690 5689 5687 5684 5682 5677 5674 5672 5671 5668 5664 5664 5660 5658 5657 5656 5655 5653 5652 5650
5661 5666 5670 5674 5679 5684 5687 5687 5688 5690 5692 5693 5694 5694 5696 5696 5697 5697 5697 5697 5694 5690 5690 5690 5689 5686 5685 5684 5680 5678 5674 5670 5668 5667 5665 5662 5661 5659 5656 5654 5654 5655 5654 5652 5654
5651 5656 5661 5666 5671 5675 5678 5678 5680 5682 5684 5686 5688 5689 5689 5690 5691 5692 5693 5692 5689 5687 5686 5686 5685 5683 5682 5680 5677 5674 5670 5667 5664 5663 5662 5660 5657 5656 5655 5653 5651 5651 5652 5653 5651
5639 5645 5653 5658 5662 5664 5668 5671 5673 5676 5677 5679 5681 5681 5682 5685 5685 5686 5687 5687 5684 5681 5681 5681 5681 5678 5676 5673 5672 5671 5667 5663 5660 5658 5658 5657 5654 5652 5652 5651 5650 5648 5648 5648 5649
5628 5633 5640 5648 5651 5654 5658 5662 5665 5667 5669 5671 5673 5672 5676 5679 5679 5680 5680 5680 5679 5676 5676 5677 5676 5674 5671 5669 5668 5667 5662 5659 5656 5654 5653 5652 5651 5648 5647 5647 5647 5646 5645 5645 5644
5615 5623 5630 5636 5640 5644 5651 5652 5654 5658 5663 5663 5665 5666 5668 5671 5672 5671 5673 5674 5673 5671 5670 5672 5671 5669 5667 5665 5663 5663 5658 5654 5652 5650 5648 5647 5647 5645 5644 5643 5642 5642 5642 5642 5641